AirNav   Everest Fuels
 
 434 users online  

CL77 Bonny Doon Airport
Santa Cruz, California, USA

GOING TO SANTA CRUZ?


FAA INFORMATION EFFECTIVE 07 NOVEMBER 2019

Location

FAA Identifier: CL77
Lat/Long: 37-04-13.8130N 122-07-38.8760W
37-04.230217N 122-07.647933W
37.0705036,-122.1274656
(estimated)
Elevation: 2020 ft. / 616 m (estimated)
Variation: 16E (1980)
From city: 8 miles NW of SANTA CRUZ, CA
Time zone: UTC -8 (UTC -7 during Daylight Saving Time)
Zip code: 95060

Airport Operations

Airport use: Private use. Permission required prior to landing
Activation date: 07/1986
Control tower: no
ARTCC: OAKLAND CENTER
FSS: OAKLAND FLIGHT SERVICE STATION
Attendance: CONTINUOUS
Wind indicator: yes
Segmented circle: yes

Airport Communications

WX ASOS at WVI (18 nm SE): 132.275 (831-724-8794)
WX ASOS at SJC (20 nm NE): 126.95 (408-969-0838)

Nearby radio navigation aids

VOR radial/distance  VOR name  Freq  Var
SJCr190/20.2SAN JOSE VOR/DME114.1016E
OSIr142/20.7WOODSIDE VOR/DME113.9017E
SFOr143/35.0SAN FRANCISCO VOR/DME115.8017E
SNSr297/35.1SALINAS VORTAC117.3017E
OAKr156/39.6OAKLAND VOR/DME116.8017E

Airport Services

Runway Information

Runway 12/30

Dimensions: 2200 x 50 ft. / 671 x 15 m
Surface: asphalt
RUNWAY 12  RUNWAY 30
Traffic pattern: leftleft

Airport Ownership and Management from official FAA records

Ownership: Privately-owned
Owner: BONNY DOON AIRPORT LLC
8647 EMPIRE GRADE
SANTA CRUZ, CA 95060
Phone (831) 7316-7309
C/O MARGARET LIP
Manager: PHILLIP TRISSELL
680 DELTA WAY
WATSONVILLE, CA 95076
Phone 831-254-5111

Airport Operational Statistics

Aircraft based on the field: 2
Single engine airplanes: 2
    

Additional Remarks

TREES SURROUNDING ARPT; HIGH TRRN NORTH; USE RWY 30 FOR LANDING; RWY 12 FOR TKOF.
FOR CD CTC NORCAL APCH AT 916-361-3748.

Instrument Procedures

There are no published instrument procedures at CL77.

Some nearby airports with instrument procedures:

KWVI - Watsonville Municipal Airport (18 nm SE)
KSJC - Norman Y Mineta San Jose International Airport (20 nm NE)
KNUQ - Moffett Federal Airfield (21 nm N)
KRHV - Reid-Hillview Airport of Santa Clara County (22 nm NE)
KPAO - Palo Alto Airport (23 nm N)
 
Loc | Ops | Rwys | IFR | FBO | Links
Com | Nav | Svcs | Stats | Notes
Area around CL77 (Bonny Doon Airport)
 
Road maps at: MapQuest Bing Google
 
Aerial photo
WARNING: Photo may not be current or correct
Aerial photo of CL77 (Bonny Doon Airport)
Do you have a better or more recent aerial photo of Bonny Doon Airport that you would like to share? If so, please send us your photo.

 
Sectional chart

 
Airport distance calculator
Flying to Bonny Doon Airport? Find the distance to fly.

From to CL77

Sunrise and sunset
Times for 17-Nov-2019
 Local
(UTC-8)
 Zulu
(UTC)
Morning civil twilight06:2314:23
Sunrise06:5014:50
Sunset16:5700:57
Evening civil twilight17:2401:24

Current date and time
Zulu (UTC)  17-Nov-2019 09:31:40
Local (UTC-8)  17-Nov-2019 01:31:40
 
METAR
KWVI 
18nm SE 
170853Z AUTO 00000KT 10SM CLR 10/07 A3009 RMK AO2 SLP190 T01000072 58003 $
KSJC 
20nm NE 
170853Z AUTO 00000KT 10SM CLR 12/09 A3009 RMK AO2 SLP189 T01170094 56007 $
KRHV 
21nm NE 
170547Z 00000KT 10SM SKC 13/10 A3012
KNUQ 
21nm N 
170856Z A3010 RMK AO2 SLP197 57003 PWINO $
KPAO 
24nm N 
170447Z VRB03KT 10SM SKC 13/12 A3011 RMK LAST
KSQL 
27nm N 
170920Z AUTO 00000KT 10SM CLR 12/09 A3010 RMK AO2
KOAR 
30nm SE 
134.025 831-384-2967
No observation available
KHAF 
32nm NW 
170920Z AUTO 00000KT M1/4SM FG OVC002 08/08 A3011 RMK AO2
KMRY 
32nm SE 
170854Z AUTO 12004KT 10SM CLR 10/07 A3009 RMK AO2 SLP202 T01000072 58002 $
KSFO 
35nm N 
170856Z 00000KT 10SM FEW010 12/09 A3010 RMK AO2 SLP191 T01170094 56005 $
TAF
KSJC 
20nm NE 
170523Z 1706/1806 VRB03KT P6SM SCT250 FM171200 VRB03KT 3SM BR SCT250 FM171800 32010KT P6SM SKC FM180300 30008KT P6SM SKC
NOTAMs
Click for the latest NOTAMs
NOTAMs are issued by the DoD/FAA and will open in a separate window not controlled by AirNav.

 

 
 

Would you like to see your business listed on this page?

 If your business provides an interesting product or service to pilots, flight crews, aircraft, or users of the Bonny Doon Airport, you should consider listing it here.  To start the listing process, click on the button below
 
Add a business
 

Other Pages about Bonny Doon Airport

Update a link
 
Copyright © AirNav, LLC. All rights reserved. Privacy Policy  Contact